Myrtle Beach, SC

9:33 PM EDT on March 29, 2017 (GMT -0400)
Myrtle Beach International

Weather History for KMYR - January, 2013

Change the Weather History Date:

Sunday, January 13, 2013

  Actual Average Record
Temperature  
Mean Temperature 66 °F -  
Max Temperature 75 °F 54 °F 75 °F (2013)
Min Temperature 57 °F 34 °F 21 °F (1954)
Cooling Degree Days 1    
Growing Degree Days 16 (Base 50)    
Moisture  
Dew Point 59 °F    
Average Humidity 88    
Maximum Humidity 100    
Minimum Humidity 61    
Precipitation  
Precipitation 0.00 in - - ()
Sea Level Pressure  
Sea Level Pressure 30.14 in    
Wind  
Wind Speed 5 mph (SW)    
Max Wind Speed 15 mph    
Max Gust Speed 18 mph    
Visibility 10 miles    
Events Fog    
Averages and records for this station are not official NWS values.
T = Trace of Precipitation, MM = Missing Value Source: NWS Daily Summary

Daily Weather History Graph

Daily Weather History Graph

Search for Another Location

Airport or City:

Trip Planner

Search our weather history database for the weather conditions in past years. The results will help you decide how hot, cold, wet, or windy it might be!

Date:

Astronomy

Jan. 13, 2013 Rise Set
Actual Time 7:20 AM EST 5:28 PM EST
Civil Twilight 6:53 AM EST 5:55 PM EST
Nautical Twilight 6:22 AM EST 6:26 PM EST
Astronomical Twilight 5:52 AM EST 6:56 PM EST
Moon 8:25 AM EST (1/13) 7:55 PM EST (1/13)
Length of Visible Light 11h 02m
Length of Day
10h 08m
Waxing Crescent, 5% of the Moon is Illuminated
Jan 13
Waxing Crescent
Jan 18
First Quarter
Jan 26
Full
Feb 3
Last Quarter
Feb 10
New

Hourly Weather History & Observations

Time (EST) Temp. Dew Point Humidity Pressure Visibility Wind Dir Wind Speed Gust Speed Precip Events Conditions
12:15 AM 62.6 °F 59.0 °F 88% 30.14 in 10.0 mi WSW 3.5 mph - N/A   Clear
12:35 AM 60.8 °F 57.2 °F 88% 30.14 in 10.0 mi SW 3.5 mph - N/A   Clear
12:55 AM 62.6 °F 59.0 °F 88% 30.14 in 10.0 mi SW 3.5 mph - N/A   Clear
1:15 AM 62.6 °F 59.0 °F 88% 30.14 in 10.0 mi SSW 5.8 mph - N/A   Clear
1:35 AM 62.6 °F 59.0 °F 88% 30.14 in 10.0 mi Calm Calm - N/A   Clear
1:55 AM 62.6 °F 59.0 °F 88% 30.13 in 10.0 mi Calm Calm - N/A   Clear
2:15 AM 60.8 °F 57.2 °F 88% 30.14 in 7.0 mi WSW 3.5 mph - N/A   Clear
2:35 AM 60.8 °F 57.2 °F 88% 30.14 in 7.0 mi WSW 4.6 mph - N/A   Clear
2:55 AM 60.8 °F 57.2 °F 88% 30.14 in 9.0 mi WSW 4.6 mph - N/A   Clear
3:15 AM 60.8 °F 57.2 °F 88% 30.14 in 10.0 mi WSW 4.6 mph - N/A   Clear
3:35 AM 60.8 °F 57.2 °F 88% 30.13 in 10.0 mi Calm Calm - N/A   Clear
3:55 AM 59.0 °F 55.4 °F 88% 30.13 in 10.0 mi Calm Calm - N/A   Clear
4:15 AM 57.2 °F 55.4 °F 94% 30.12 in 3.0 mi Calm Calm - N/A   Clear
4:35 AM 57.2 °F 57.2 °F 100% 30.12 in 5.0 mi Calm Calm - N/A   Clear
4:55 AM 57.2 °F 57.2 °F 100% 30.12 in 9.0 mi WSW 3.5 mph - N/A   Clear
5:15 AM 59.0 °F 57.2 °F 94% 30.12 in 10.0 mi Calm Calm - N/A   Clear
5:35 AM 59.0 °F 57.2 °F 94% 30.12 in 10.0 mi Calm Calm - N/A   Clear
5:50 AM 57.2 °F 55.4 °F 94% 30.12 in 10.0 mi SW 5.8 mph - N/A Fog Patches of Fog
6:45 AM 57.2 °F 57.2 °F 100% 30.14 in 10.0 mi West 5.8 mph - N/A Fog Patches of Fog
7:45 AM 57.2 °F 55.4 °F 94% 30.16 in 10.0 mi WSW 5.8 mph - N/A   Clear
8:45 AM 64.4 °F 62.6 °F 94% 30.17 in 10.0 mi SW 6.9 mph - N/A   Clear
9:50 AM 69.8 °F 62.6 °F 78% 30.19 in 10.0 mi WSW 11.5 mph - N/A   Partly Cloudy
10:45 AM 73.4 °F 60.8 °F 65% 30.19 in 10.0 mi WSW 11.5 mph 18.4 mph N/A   Mostly Cloudy
11:47 AM 71.6 °F 60.8 °F 69% 30.15 in 10.0 mi South 9.2 mph - N/A   Mostly Cloudy
12:45 PM 75.2 °F 60.8 °F 61% 30.12 in 10.0 mi WSW 9.2 mph - N/A   Scattered Clouds
1:50 PM 71.6 °F 60.8 °F 69% 30.11 in 10.0 mi South 15.0 mph - N/A   Scattered Clouds
2:45 PM 69.8 °F 60.8 °F 73% 30.11 in 10.0 mi South 8.1 mph - N/A   Clear
3:45 PM 66.2 °F 59.0 °F 78% 30.12 in 10.0 mi South 11.5 mph - N/A   Mostly Cloudy
4:47 PM 64.4 °F 60.8 °F 88% 30.13 in 10.0 mi South 11.5 mph - N/A   Mostly Cloudy
5:45 PM 62.6 °F 59.0 °F 88% 30.14 in 10.0 mi SSW 9.2 mph - N/A   Mostly Cloudy
6:45 PM 62.6 °F 60.8 °F 94% 30.13 in 10.0 mi SSW 10.4 mph - N/A   Clear
7:50 PM 62.6 °F 59.0 °F 88% 30.13 in 10.0 mi SSW 6.9 mph - N/A   Clear
8:48 PM 62.6 °F 60.8 °F 94% 30.13 in 10.0 mi SSW 9.2 mph - N/A   Clear
9:48 PM 60.8 °F 59.0 °F 94% 30.15 in 10.0 mi SSW 9.2 mph - N/A   Clear
10:55 PM 62.6 °F 60.8 °F 94% 30.16 in 10.0 mi South 5.8 mph - N/A   Clear
11:15 PM 62.6 °F 60.8 °F 94% 30.16 in 10.0 mi SSW 5.8 mph - N/A   Clear
11:35 PM 62.6 °F 60.8 °F 94% 30.17 in 10.0 mi SSW 3.5 mph - N/A   Clear
11:55 PM 62.6 °F 60.8 °F 94% 30.16 in 10.0 mi South 5.8 mph - N/A   Clear